owner,sensor,date,latitude,longitude,sea_surface_height_above_sea_level,qcFlag 
COMPS,ioos:station:USF.COMPS:SHP:1,2013-04-01T00:00:00Z,30.0600,-84.2910,0.383,1111122 
COMPS,ioos:station:USF.COMPS:SHP:1,2013-04-01T00:06:00Z,30.0600,-84.2910,0.356,1111122 
COMPS,ioos:station:USF.COMPS:SHP:1,2013-04-01T00:12:00Z,30.0600,-84.2910,0.33,1111122 
COMPS,ioos:station:USF.COMPS:SHP:1,2013-04-01T00:18:00Z,30.0600,-84.2910,0.296,1111122 
COMPS,ioos:station:USF.COMPS:SHP:1,2013-04-01T00:24:00Z,30.0600,-84.2910,0.271,1111122 
COMPS,ioos:station:USF.COMPS:SHP:1,2013-04-01T00:30:00Z,30.0600,-84.2910,0.246,1111122 
COMPS,ioos:station:USF.COMPS:SHP:1,2013-04-01T00:36:00Z,30.0600,-84.2910,0.208,1111122 
COMPS,ioos:station:USF.COMPS:SHP:1,2013-04-01T00:42:00Z,30.0600,-84.2910,0.176,1111122 
COMPS,ioos:station:USF.COMPS:SHP:1,2013-04-01T00:48:00Z,30.0600,-84.2910,0.152,1111122 
COMPS,ioos:station:USF.COMPS:SHP:1,2013-04-01T00:54:00Z,30.0600,-84.2910,0.126,1111122 
COMPS,ioos:station:USF.COMPS:SHP:1,2013-04-01T01:00:00Z,30.0600,-84.2910,0.097,1111122 
COMPS,ioos:station:USF.COMPS:SHP:1,2013-04-01T01:06:00Z,30.0600,-84.2910,0.066,1111122 
COMPS,ioos:station:USF.COMPS:SHP:1,2013-04-01T01:12:00Z,30.0600,-84.2910,0.031,1111122 
COMPS,ioos:station:USF.COMPS:SHP:1,2013-04-01T01:18:00Z,30.0600,-84.2910,0.003,1111122 
COMPS,ioos:station:USF.COMPS:SHP:1,2013-04-01T01:24:00Z,30.0600,-84.2910,-0.018,1111122 
COMPS,ioos:station:USF.COMPS:SHP:1,2013-04-01T01:30:00Z,30.0600,-84.2910,-0.036,1111122 
COMPS,ioos:station:USF.COMPS:SHP:1,2013-04-01T01:36:00Z,30.0600,-84.2910,-0.059,1111122 
COMPS,ioos:station:USF.COMPS:SHP:1,2013-04-01T01:42:00Z,30.0600,-84.2910,-0.09,1111122 
COMPS,ioos:station:USF.COMPS:SHP:1,2013-04-01T01:48:00Z,30.0600,-84.2910,-0.123,1111122 
COMPS,ioos:station:USF.COMPS:SHP:1,2013-04-01T01:54:00Z,30.0600,-84.2910,-0.149,1111122 
COMPS,ioos:station:USF.COMPS:SHP:1,2013-04-01T02:00:00Z,30.0600,-84.2910,-0.172,1111122 
COMPS,ioos:station:USF.COMPS:SHP:1,2013-04-01T02:06:00Z,30.0600,-84.2910,-0.197,1111122 
COMPS,ioos:station:USF.COMPS:SHP:1,2013-04-01T02:12:00Z,30.0600,-84.2910,-0.222,1111122 
COMPS,ioos:station:USF.COMPS:SHP:1,2013-04-01T02:18:00Z,30.0600,-84.2910,-0.242,1111122 
COMPS,ioos:station:USF.COMPS:SHP:1,2013-04-01T02:24:00Z,30.0600,-84.2910,-0.261,1111122 
COMPS,ioos:station:USF.COMPS:SHP:1,2013-04-01T02:30:00Z,30.0600,-84.2910,-0.28,1111122 
COMPS,ioos:station:USF.COMPS:SHP:1,2013-04-01T02:36:00Z,30.0600,-84.2910,-0.296,1111122 
COMPS,ioos:station:USF.COMPS:SHP:1,2013-04-01T02:42:00Z,30.0600,-84.2910,-0.314,1111122 
COMPS,ioos:station:USF.COMPS:SHP:1,2013-04-01T02:48:00Z,30.0600,-84.2910,-0.332,1111122 
COMPS,ioos:station:USF.COMPS:SHP:1,2013-04-01T02:54:00Z,30.0600,-84.2910,-0.352,1111122 
COMPS,ioos:station:USF.COMPS:SHP:1,2013-04-01T03:00:00Z,30.0600,-84.2910,-0.372,1111122 
COMPS,ioos:station:USF.COMPS:SHP:1,2013-04-01T03:06:00Z,30.0600,-84.2910,-0.39,1111122 
COMPS,ioos:station:USF.COMPS:SHP:1,2013-04-01T03:12:00Z,30.0600,-84.2910,-0.408,1111122 
COMPS,ioos:station:USF.COMPS:SHP:1,2013-04-01T03:18:00Z,30.0600,-84.2910,-0.425,1111122 
COMPS,ioos:station:USF.COMPS:SHP:1,2013-04-01T03:24:00Z,30.0600,-84.2910,-0.44,1111122 
COMPS,ioos:station:USF.COMPS:SHP:1,2013-04-01T03:30:00Z,30.0600,-84.2910,-0.453,1111122 
COMPS,ioos:station:USF.COMPS:SHP:1,2013-04-01T03:36:00Z,30.0600,-84.2910,-0.465,1111122 
COMPS,ioos:station:USF.COMPS:SHP:1,2013-04-01T03:42:00Z,30.0600,-84.2910,-0.477,1111122 
COMPS,ioos:station:USF.COMPS:SHP:1,2013-04-01T03:48:00Z,30.0600,-84.2910,-0.49,1111122 
COMPS,ioos:station:USF.COMPS:SHP:1,2013-04-01T03:54:00Z,30.0600,-84.2910,-0.503,1111122 
COMPS,ioos:station:USF.COMPS:SHP:1,2013-04-01T04:00:00Z,30.0600,-84.2910,-0.515,1111122 
COMPS,ioos:station:USF.COMPS:SHP:1,2013-04-01T04:06:00Z,30.0600,-84.2910,-0.525,1111122 
COMPS,ioos:station:USF.COMPS:SHP:1,2013-04-01T04:12:00Z,30.0600,-84.2910,-0.532,1111122 
COMPS,ioos:station:USF.COMPS:SHP:1,2013-04-01T04:18:00Z,30.0600,-84.2910,-0.539,1111122 
COMPS,ioos:station:USF.COMPS:SHP:1,2013-04-01T04:24:00Z,30.0600,-84.2910,-0.544,1111122 
COMPS,ioos:station:USF.COMPS:SHP:1,2013-04-01T04:30:00Z,30.0600,-84.2910,-0.543,1111122 
COMPS,ioos:station:USF.COMPS:SHP:1,2013-04-01T04:36:00Z,30.0600,-84.2910,-0.542,1111122 
COMPS,ioos:station:USF.COMPS:SHP:1,2013-04-01T04:42:00Z,30.0600,-84.2910,-0.547,1111122 
COMPS,ioos:station:USF.COMPS:SHP:1,2013-04-01T04:48:00Z,30.0600,-84.2910,-0.554,1111122 
COMPS,ioos:station:USF.COMPS:SHP:1,2013-04-01T04:54:00Z,30.0600,-84.2910,-0.562,1111122 
COMPS,ioos:station:USF.COMPS:SHP:1,2013-04-01T05:00:00Z,30.0600,-84.2910,-0.57,1111122 
COMPS,ioos:station:USF.COMPS:SHP:1,2013-04-01T05:06:00Z,30.0600,-84.2910,-0.577,1111122 
COMPS,ioos:station:USF.COMPS:SHP:1,2013-04-01T05:12:00Z,30.0600,-84.2910,-0.581,1111122 
COMPS,ioos:station:USF.COMPS:SHP:1,2013-04-01T05:18:00Z,30.0600,-84.2910,-0.582,1111122 
COMPS,ioos:station:USF.COMPS:SHP:1,2013-04-01T05:24:00Z,30.0600,-84.2910,-0.573,1111122 
COMPS,ioos:station:USF.COMPS:SHP:1,2013-04-01T05:30:00Z,30.0600,-84.2910,-0.559,1111122 
COMPS,ioos:station:USF.COMPS:SHP:1,2013-04-01T05:36:00Z,30.0600,-84.2910,-0.549,1111122 
COMPS,ioos:station:USF.COMPS:SHP:1,2013-04-01T05:42:00Z,30.0600,-84.2910,-0.539,1111122 
COMPS,ioos:station:USF.COMPS:SHP:1,2013-04-01T05:48:00Z,30.0600,-84.2910,-0.529,1111122 
COMPS,ioos:station:USF.COMPS:SHP:1,2013-04-01T05:54:00Z,30.0600,-84.2910,-0.52,1111122 
COMPS,ioos:station:USF.COMPS:SHP:1,2013-04-01T06:00:00Z,30.0600,-84.2910,-0.511,1111122 
COMPS,ioos:station:USF.COMPS:SHP:1,2013-04-01T06:06:00Z,30.0600,-84.2910,-0.5,1111122 
COMPS,ioos:station:USF.COMPS:SHP:1,2013-04-01T06:12:00Z,30.0600,-84.2910,-0.486,1111122 
COMPS,ioos:station:USF.COMPS:SHP:1,2013-04-01T06:18:00Z,30.0600,-84.2910,-0.47,1111122 
COMPS,ioos:station:USF.COMPS:SHP:1,2013-04-01T06:24:00Z,30.0600,-84.2910,-0.452,1111122 
COMPS,ioos:station:USF.COMPS:SHP:1,2013-04-01T06:30:00Z,30.0600,-84.2910,-0.43,1111122 
COMPS,ioos:station:USF.COMPS:SHP:1,2013-04-01T06:36:00Z,30.0600,-84.2910,-0.404,1111122 
COMPS,ioos:station:USF.COMPS:SHP:1,2013-04-01T06:42:00Z,30.0600,-84.2910,-0.377,1111122 
COMPS,ioos:station:USF.COMPS:SHP:1,2013-04-01T06:48:00Z,30.0600,-84.2910,-0.352,1111122 
COMPS,ioos:station:USF.COMPS:SHP:1,2013-04-01T06:54:00Z,30.0600,-84.2910,-0.33,1111122 
COMPS,ioos:station:USF.COMPS:SHP:1,2013-04-01T07:00:00Z,30.0600,-84.2910,-0.309,1111122 
COMPS,ioos:station:USF.COMPS:SHP:1,2013-04-01T07:06:00Z,30.0600,-84.2910,-0.287,1111122 
COMPS,ioos:station:USF.COMPS:SHP:1,2013-04-01T07:12:00Z,30.0600,-84.2910,-0.261,1111122 
COMPS,ioos:station:USF.COMPS:SHP:1,2013-04-01T07:18:00Z,30.0600,-84.2910,-0.234,1111122 
COMPS,ioos:station:USF.COMPS:SHP:1,2013-04-01T07:24:00Z,30.0600,-84.2910,-0.202,1111122 
COMPS,ioos:station:USF.COMPS:SHP:1,2013-04-01T07:30:00Z,30.0600,-84.2910,-0.17,1111122 
COMPS,ioos:station:USF.COMPS:SHP:1,2013-04-01T07:36:00Z,30.0600,-84.2910,-0.138,1111122 
COMPS,ioos:station:USF.COMPS:SHP:1,2013-04-01T07:42:00Z,30.0600,-84.2910,-0.105,1111122 
COMPS,ioos:station:USF.COMPS:SHP:1,2013-04-01T07:48:00Z,30.0600,-84.2910,-0.081,1111122 
COMPS,ioos:station:USF.COMPS:SHP:1,2013-04-01T07:54:00Z,30.0600,-84.2910,-0.062,1111122 
COMPS,ioos:station:USF.COMPS:SHP:1,2013-04-01T08:00:00Z,30.0600,-84.2910,-0.036,1111122 
COMPS,ioos:station:USF.COMPS:SHP:1,2013-04-01T08:06:00Z,30.0600,-84.2910,-0.006,1111122 
COMPS,ioos:station:USF.COMPS:SHP:1,2013-04-01T08:12:00Z,30.0600,-84.2910,0.018,1111122 
COMPS,ioos:station:USF.COMPS:SHP:1,2013-04-01T08:18:00Z,30.0600,-84.2910,0.04,1111122 
COMPS,ioos:station:USF.COMPS:SHP:1,2013-04-01T08:24:00Z,30.0600,-84.2910,0.067,1111122 
COMPS,ioos:station:USF.COMPS:SHP:1,2013-04-01T08:30:00Z,30.0600,-84.2910,0.093,1111122 
COMPS,ioos:station:USF.COMPS:SHP:1,2013-04-01T08:36:00Z,30.0600,-84.2910,0.113,1111122 
COMPS,ioos:station:USF.COMPS:SHP:1,2013-04-01T08:42:00Z,30.0600,-84.2910,0.132,1111122 
COMPS,ioos:station:USF.COMPS:SHP:1,2013-04-01T08:48:00Z,30.0600,-84.2910,0.155,1111122 
COMPS,ioos:station:USF.COMPS:SHP:1,2013-04-01T08:54:00Z,30.0600,-84.2910,0.178,1111122 
COMPS,ioos:station:USF.COMPS:SHP:1,2013-04-01T09:00:00Z,30.0600,-84.2910,0.201,1111122 
COMPS,ioos:station:USF.COMPS:SHP:1,2013-04-01T09:06:00Z,30.0600,-84.2910,0.222,1111122 
COMPS,ioos:station:USF.COMPS:SHP:1,2013-04-01T09:12:00Z,30.0600,-84.2910,0.236,1111122 
COMPS,ioos:station:USF.COMPS:SHP:1,2013-04-01T09:18:00Z,30.0600,-84.2910,0.258,1111122 
COMPS,ioos:station:USF.COMPS:SHP:1,2013-04-01T09:24:00Z,30.0600,-84.2910,0.276,1111122 
COMPS,ioos:station:USF.COMPS:SHP:1,2013-04-01T09:30:00Z,30.0600,-84.2910,0.289,1111122 
COMPS,ioos:station:USF.COMPS:SHP:1,2013-04-01T09:36:00Z,30.0600,-84.2910,0.306,1111122 
COMPS,ioos:station:USF.COMPS:SHP:1,2013-04-01T09:42:00Z,30.0600,-84.2910,0.325,1111122 
COMPS,ioos:station:USF.COMPS:SHP:1,2013-04-01T09:48:00Z,30.0600,-84.2910,0.342,1111122 
COMPS,ioos:station:USF.COMPS:SHP:1,2013-04-01T09:54:00Z,30.0600,-84.2910,0.351,1111122 
COMPS,ioos:station:USF.COMPS:SHP:1,2013-04-01T10:00:00Z,30.0600,-84.2910,0.356,1111122 
COMPS,ioos:station:USF.COMPS:SHP:1,2013-04-01T10:06:00Z,30.0600,-84.2910,0.366,1111122 
COMPS,ioos:station:USF.COMPS:SHP:1,2013-04-01T10:12:00Z,30.0600,-84.2910,0.382,1111122 
COMPS,ioos:station:USF.COMPS:SHP:1,2013-04-01T10:18:00Z,30.0600,-84.2910,0.4,1111122 
COMPS,ioos:station:USF.COMPS:SHP:1,2013-04-01T10:24:00Z,30.0600,-84.2910,0.404,1111122 
COMPS,ioos:station:USF.COMPS:SHP:1,2013-04-01T10:30:00Z,30.0600,-84.2910,0.411,1111122 
COMPS,ioos:station:USF.COMPS:SHP:1,2013-04-01T10:36:00Z,30.0600,-84.2910,0.422,1111122 
COMPS,ioos:station:USF.COMPS:SHP:1,2013-04-01T10:42:00Z,30.0600,-84.2910,0.427,1111122 
COMPS,ioos:station:USF.COMPS:SHP:1,2013-04-01T10:48:00Z,30.0600,-84.2910,0.432,1111122 
COMPS,ioos:station:USF.COMPS:SHP:1,2013-04-01T10:54:00Z,30.0600,-84.2910,0.435,1111122 
COMPS,ioos:station:USF.COMPS:SHP:1,2013-04-01T11:00:00Z,30.0600,-84.2910,0.436,1111122 
COMPS,ioos:station:USF.COMPS:SHP:1,2013-04-01T11:06:00Z,30.0600,-84.2910,0.434,1111122 
COMPS,ioos:station:USF.COMPS:SHP:1,2013-04-01T11:12:00Z,30.0600,-84.2910,0.429,1111122 
COMPS,ioos:station:USF.COMPS:SHP:1,2013-04-01T11:18:00Z,30.0600,-84.2910,0.43,1111122 
COMPS,ioos:station:USF.COMPS:SHP:1,2013-04-01T11:24:00Z,30.0600,-84.2910,0.432,1111122 
COMPS,ioos:station:USF.COMPS:SHP:1,2013-04-01T11:30:00Z,30.0600,-84.2910,0.42,1111122 
COMPS,ioos:station:USF.COMPS:SHP:1,2013-04-01T11:36:00Z,30.0600,-84.2910,0.41,1111122 
COMPS,ioos:station:USF.COMPS:SHP:1,2013-04-01T11:42:00Z,30.0600,-84.2910,0.395,1111122 
COMPS,ioos:station:USF.COMPS:SHP:1,2013-04-01T11:48:00Z,30.0600,-84.2910,0.381,1111122 
COMPS,ioos:station:USF.COMPS:SHP:1,2013-04-01T11:54:00Z,30.0600,-84.2910,0.372,1111122 
COMPS,ioos:station:USF.COMPS:SHP:1,2013-04-01T12:00:00Z,30.0600,-84.2910,0.361,1111122 
COMPS,ioos:station:USF.COMPS:SHP:1,2013-04-01T12:06:00Z,30.0600,-84.2910,0.352,1111122 
COMPS,ioos:station:USF.COMPS:SHP:1,2013-04-01T12:12:00Z,30.0600,-84.2910,0.341,1111122 
COMPS,ioos:station:USF.COMPS:SHP:1,2013-04-01T12:18:00Z,30.0600,-84.2910,0.333,1111122 
COMPS,ioos:station:USF.COMPS:SHP:1,2013-04-01T12:24:00Z,30.0600,-84.2910,0.322,1111122 
COMPS,ioos:station:USF.COMPS:SHP:1,2013-04-01T12:30:00Z,30.0600,-84.2910,0.31,1111122 
COMPS,ioos:station:USF.COMPS:SHP:1,2013-04-01T12:36:00Z,30.0600,-84.2910,0.293,1111122 
COMPS,ioos:station:USF.COMPS:SHP:1,2013-04-01T12:42:00Z,30.0600,-84.2910,0.287,1111122 
COMPS,ioos:station:USF.COMPS:SHP:1,2013-04-01T12:48:00Z,30.0600,-84.2910,0.276,1111122 
COMPS,ioos:station:USF.COMPS:SHP:1,2013-04-01T12:54:00Z,30.0600,-84.2910,0.269,1111122 
COMPS,ioos:station:USF.COMPS:SHP:1,2013-04-01T13:00:00Z,30.0600,-84.2910,0.254,1111122 
COMPS,ioos:station:USF.COMPS:SHP:1,2013-04-01T13:06:00Z,30.0600,-84.2910,0.24,1111122 
COMPS,ioos:station:USF.COMPS:SHP:1,2013-04-01T13:12:00Z,30.0600,-84.2910,0.234,1111122 
COMPS,ioos:station:USF.COMPS:SHP:1,2013-04-01T13:18:00Z,30.0600,-84.2910,0.226,1111122 
COMPS,ioos:station:USF.COMPS:SHP:1,2013-04-01T13:24:00Z,30.0600,-84.2910,0.207,1111122 
COMPS,ioos:station:USF.COMPS:SHP:1,2013-04-01T13:30:00Z,30.0600,-84.2910,0.195,1111122 
COMPS,ioos:station:USF.COMPS:SHP:1,2013-04-01T13:36:00Z,30.0600,-84.2910,0.185,1111122 
COMPS,ioos:station:USF.COMPS:SHP:1,2013-04-01T13:42:00Z,30.0600,-84.2910,0.166,1111122 
COMPS,ioos:station:USF.COMPS:SHP:1,2013-04-01T13:48:00Z,30.0600,-84.2910,0.15,1111122 
COMPS,ioos:station:USF.COMPS:SHP:1,2013-04-01T13:54:00Z,30.0600,-84.2910,0.141,1111122 
COMPS,ioos:station:USF.COMPS:SHP:1,2013-04-01T14:00:00Z,30.0600,-84.2910,0.125,1111122 
COMPS,ioos:station:USF.COMPS:SHP:1,2013-04-01T14:06:00Z,30.0600,-84.2910,0.091,1111122 
COMPS,ioos:station:USF.COMPS:SHP:1,2013-04-01T14:12:00Z,30.0600,-84.2910,0.07,1111122 
COMPS,ioos:station:USF.COMPS:SHP:1,2013-04-01T14:18:00Z,30.0600,-84.2910,0.064,1111122 
COMPS,ioos:station:USF.COMPS:SHP:1,2013-04-01T14:24:00Z,30.0600,-84.2910,0.053,1111122 
COMPS,ioos:station:USF.COMPS:SHP:1,2013-04-01T14:30:00Z,30.0600,-84.2910,0.033,1111122 
COMPS,ioos:station:USF.COMPS:SHP:1,2013-04-01T14:36:00Z,30.0600,-84.2910,0.022,1111122 
COMPS,ioos:station:USF.COMPS:SHP:1,2013-04-01T14:42:00Z,30.0600,-84.2910,0.013,1111122 
COMPS,ioos:station:USF.COMPS:SHP:1,2013-04-01T14:48:00Z,30.0600,-84.2910,-0.007,1111122 
COMPS,ioos:station:USF.COMPS:SHP:1,2013-04-01T14:54:00Z,30.0600,-84.2910,-0.024,1111122 
COMPS,ioos:station:USF.COMPS:SHP:1,2013-04-01T15:00:00Z,30.0600,-84.2910,-0.031,1111122 
COMPS,ioos:station:USF.COMPS:SHP:1,2013-04-01T15:06:00Z,30.0600,-84.2910,-0.021,1111122 
COMPS,ioos:station:USF.COMPS:SHP:1,2013-04-01T15:12:00Z,30.0600,-84.2910,-0.014,1111122 
COMPS,ioos:station:USF.COMPS:SHP:1,2013-04-01T15:18:00Z,30.0600,-84.2910,-0.017,1111122 
COMPS,ioos:station:USF.COMPS:SHP:1,2013-04-01T15:24:00Z,30.0600,-84.2910,-0.027,1111122 
COMPS,ioos:station:USF.COMPS:SHP:1,2013-04-01T15:30:00Z,30.0600,-84.2910,-0.032,1111122 
COMPS,ioos:station:USF.COMPS:SHP:1,2013-04-01T15:36:00Z,30.0600,-84.2910,-0.034,1111122 
COMPS,ioos:station:USF.COMPS:SHP:1,2013-04-01T15:42:00Z,30.0600,-84.2910,-0.042,1111122 
COMPS,ioos:station:USF.COMPS:SHP:1,2013-04-01T15:48:00Z,30.0600,-84.2910,-0.038,1111122 
COMPS,ioos:station:USF.COMPS:SHP:1,2013-04-01T15:54:00Z,30.0600,-84.2910,-0.039,1111122 
COMPS,ioos:station:USF.COMPS:SHP:1,2013-04-01T16:00:00Z,30.0600,-84.2910,-0.053,1111122 
COMPS,ioos:station:USF.COMPS:SHP:1,2013-04-01T16:06:00Z,30.0600,-84.2910,-0.051,1111122 
COMPS,ioos:station:USF.COMPS:SHP:1,2013-04-01T16:12:00Z,30.0600,-84.2910,-0.037,1111122 
COMPS,ioos:station:USF.COMPS:SHP:1,2013-04-01T16:18:00Z,30.0600,-84.2910,-0.029,1111122 
COMPS,ioos:station:USF.COMPS:SHP:1,2013-04-01T16:24:00Z,30.0600,-84.2910,-0.025,1111122 
COMPS,ioos:station:USF.COMPS:SHP:1,2013-04-01T16:30:00Z,30.0600,-84.2910,-0.027,1111122 
COMPS,ioos:station:USF.COMPS:SHP:1,2013-04-01T16:36:00Z,30.0600,-84.2910,-0.03,1111122 
COMPS,ioos:station:USF.COMPS:SHP:1,2013-04-01T16:42:00Z,30.0600,-84.2910,-0.027,1111122 
COMPS,ioos:station:USF.COMPS:SHP:1,2013-04-01T16:48:00Z,30.0600,-84.2910,-0.018,1111122 
COMPS,ioos:station:USF.COMPS:SHP:1,2013-04-01T16:54:00Z,30.0600,-84.2910,-0.014,1111122 
COMPS,ioos:station:USF.COMPS:SHP:1,2013-04-01T17:00:00Z,30.0600,-84.2910,-0.01,1111122 
COMPS,ioos:station:USF.COMPS:SHP:1,2013-04-01T17:06:00Z,30.0600,-84.2910,0.004,1111122 
COMPS,ioos:station:USF.COMPS:SHP:1,2013-04-01T17:12:00Z,30.0600,-84.2910,0.026,1111122 
COMPS,ioos:station:USF.COMPS:SHP:1,2013-04-01T17:18:00Z,30.0600,-84.2910,0.043,1111122 
COMPS,ioos:station:USF.COMPS:SHP:1,2013-04-01T17:24:00Z,30.0600,-84.2910,0.044,1111122 
COMPS,ioos:station:USF.COMPS:SHP:1,2013-04-01T17:30:00Z,30.0600,-84.2910,0.05,1111122 
COMPS,ioos:station:USF.COMPS:SHP:1,2013-04-01T17:36:00Z,30.0600,-84.2910,0.074,1111122 
COMPS,ioos:station:USF.COMPS:SHP:1,2013-04-01T17:42:00Z,30.0600,-84.2910,0.093,1111122 
COMPS,ioos:station:USF.COMPS:SHP:1,2013-04-01T17:48:00Z,30.0600,-84.2910,0.097,1111122 
COMPS,ioos:station:USF.COMPS:SHP:1,2013-04-01T17:54:00Z,30.0600,-84.2910,0.103,1111122 
COMPS,ioos:station:USF.COMPS:SHP:1,2013-04-01T18:00:00Z,30.0600,-84.2910,0.115,1111122 
COMPS,ioos:station:USF.COMPS:SHP:1,2013-04-01T18:06:00Z,30.0600,-84.2910,0.14,1111122 
COMPS,ioos:station:USF.COMPS:SHP:1,2013-04-01T18:12:00Z,30.0600,-84.2910,0.158,1111122 
COMPS,ioos:station:USF.COMPS:SHP:1,2013-04-01T18:18:00Z,30.0600,-84.2910,0.162,1111122 
COMPS,ioos:station:USF.COMPS:SHP:1,2013-04-01T18:24:00Z,30.0600,-84.2910,0.179,1111122 
COMPS,ioos:station:USF.COMPS:SHP:1,2013-04-01T18:30:00Z,30.0600,-84.2910,0.204,1111122 
COMPS,ioos:station:USF.COMPS:SHP:1,2013-04-01T18:36:00Z,30.0600,-84.2910,0.223,1111122 
COMPS,ioos:station:USF.COMPS:SHP:1,2013-04-01T18:42:00Z,30.0600,-84.2910,0.233,1111122 
COMPS,ioos:station:USF.COMPS:SHP:1,2013-04-01T18:48:00Z,30.0600,-84.2910,0.248,1111122 
COMPS,ioos:station:USF.COMPS:SHP:1,2013-04-01T18:54:00Z,30.0600,-84.2910,0.262,1111122 
COMPS,ioos:station:USF.COMPS:SHP:1,2013-04-01T19:00:00Z,30.0600,-84.2910,0.277,1111122 
COMPS,ioos:station:USF.COMPS:SHP:1,2013-04-01T19:06:00Z,30.0600,-84.2910,0.297,1111122 
COMPS,ioos:station:USF.COMPS:SHP:1,2013-04-01T19:12:00Z,30.0600,-84.2910,0.313,1111122 
COMPS,ioos:station:USF.COMPS:SHP:1,2013-04-01T19:18:00Z,30.0600,-84.2910,0.329,1111122 
COMPS,ioos:station:USF.COMPS:SHP:1,2013-04-01T19:24:00Z,30.0600,-84.2910,0.34,1111122 
COMPS,ioos:station:USF.COMPS:SHP:1,2013-04-01T19:30:00Z,30.0600,-84.2910,0.355,1111122 
COMPS,ioos:station:USF.COMPS:SHP:1,2013-04-01T19:36:00Z,30.0600,-84.2910,0.377,1111122 
COMPS,ioos:station:USF.COMPS:SHP:1,2013-04-01T19:42:00Z,30.0600,-84.2910,0.392,1111122 
COMPS,ioos:station:USF.COMPS:SHP:1,2013-04-01T19:48:00Z,30.0600,-84.2910,0.401,1111122 
COMPS,ioos:station:USF.COMPS:SHP:1,2013-04-01T19:54:00Z,30.0600,-84.2910,0.414,1111122 
COMPS,ioos:station:USF.COMPS:SHP:1,2013-04-01T20:00:00Z,30.0600,-84.2910,0.424,1111122 
COMPS,ioos:station:USF.COMPS:SHP:1,2013-04-01T20:06:00Z,30.0600,-84.2910,0.431,1111122 
COMPS,ioos:station:USF.COMPS:SHP:1,2013-04-01T20:12:00Z,30.0600,-84.2910,0.441,1111122 
COMPS,ioos:station:USF.COMPS:SHP:1,2013-04-01T20:18:00Z,30.0600,-84.2910,0.458,1111122 
COMPS,ioos:station:USF.COMPS:SHP:1,2013-04-01T20:24:00Z,30.0600,-84.2910,0.479,1111122 
COMPS,ioos:station:USF.COMPS:SHP:1,2013-04-01T20:30:00Z,30.0600,-84.2910,0.487,1111122 
COMPS,ioos:station:USF.COMPS:SHP:1,2013-04-01T20:36:00Z,30.0600,-84.2910,0.492,1111122 
COMPS,ioos:station:USF.COMPS:SHP:1,2013-04-01T20:42:00Z,30.0600,-84.2910,0.505,1111122 
COMPS,ioos:station:USF.COMPS:SHP:1,2013-04-01T20:48:00Z,30.0600,-84.2910,0.521,1111122 
COMPS,ioos:station:USF.COMPS:SHP:1,2013-04-01T20:54:00Z,30.0600,-84.2910,0.531,1111122 
COMPS,ioos:station:USF.COMPS:SHP:1,2013-04-01T21:00:00Z,30.0600,-84.2910,0.538,1111122 
COMPS,ioos:station:USF.COMPS:SHP:1,2013-04-01T21:06:00Z,30.0600,-84.2910,0.548,1111122 
COMPS,ioos:station:USF.COMPS:SHP:1,2013-04-01T21:12:00Z,30.0600,-84.2910,0.543,1111122 
COMPS,ioos:station:USF.COMPS:SHP:1,2013-04-01T21:18:00Z,30.0600,-84.2910,0.554,1111122 
COMPS,ioos:station:USF.COMPS:SHP:1,2013-04-01T21:24:00Z,30.0600,-84.2910,0.567,1111122 
COMPS,ioos:station:USF.COMPS:SHP:1,2013-04-01T21:30:00Z,30.0600,-84.2910,0.567,1111122 
COMPS,ioos:station:USF.COMPS:SHP:1,2013-04-01T21:36:00Z,30.0600,-84.2910,0.574,1111122 
COMPS,ioos:station:USF.COMPS:SHP:1,2013-04-01T21:42:00Z,30.0600,-84.2910,0.57,1111122 
COMPS,ioos:station:USF.COMPS:SHP:1,2013-04-01T21:48:00Z,30.0600,-84.2910,0.57,1111122 
COMPS,ioos:station:USF.COMPS:SHP:1,2013-04-01T21:54:00Z,30.0600,-84.2910,0.573,1111122 
COMPS,ioos:station:USF.COMPS:SHP:1,2013-04-01T22:00:00Z,30.0600,-84.2910,0.577,1111122 
COMPS,ioos:station:USF.COMPS:SHP:1,2013-04-01T22:06:00Z,30.0600,-84.2910,0.577,1111122 
COMPS,ioos:station:USF.COMPS:SHP:1,2013-04-01T22:12:00Z,30.0600,-84.2910,0.581,1111122 
COMPS,ioos:station:USF.COMPS:SHP:1,2013-04-01T22:18:00Z,30.0600,-84.2910,0.574,1111122 
COMPS,ioos:station:USF.COMPS:SHP:1,2013-04-01T22:24:00Z,30.0600,-84.2910,0.567,1111122 
COMPS,ioos:station:USF.COMPS:SHP:1,2013-04-01T22:30:00Z,30.0600,-84.2910,0.563,1111122 
COMPS,ioos:station:USF.COMPS:SHP:1,2013-04-01T22:36:00Z,30.0600,-84.2910,0.566,1111122 
COMPS,ioos:station:USF.COMPS:SHP:1,2013-04-01T22:42:00Z,30.0600,-84.2910,0.559,1111122 
COMPS,ioos:station:USF.COMPS:SHP:1,2013-04-01T22:48:00Z,30.0600,-84.2910,0.536,1111122 
COMPS,ioos:station:USF.COMPS:SHP:1,2013-04-01T22:54:00Z,30.0600,-84.2910,0.525,1111122 
COMPS,ioos:station:USF.COMPS:SHP:1,2013-04-01T23:00:00Z,30.0600,-84.2910,0.519,1111122 
COMPS,ioos:station:USF.COMPS:SHP:1,2013-04-01T23:06:00Z,30.0600,-84.2910,0.512,1111122 
COMPS,ioos:station:USF.COMPS:SHP:1,2013-04-01T23:12:00Z,30.0600,-84.2910,0.504,1111122 
COMPS,ioos:station:USF.COMPS:SHP:1,2013-04-01T23:18:00Z,30.0600,-84.2910,0.497,1111122 
COMPS,ioos:station:USF.COMPS:SHP:1,2013-04-01T23:24:00Z,30.0600,-84.2910,0.483,1111122 
COMPS,ioos:station:USF.COMPS:SHP:1,2013-04-01T23:30:00Z,30.0600,-84.2910,0.469,1111122 
COMPS,ioos:station:USF.COMPS:SHP:1,2013-04-01T23:36:00Z,30.0600,-84.2910,0.462,1111122 
COMPS,ioos:station:USF.COMPS:SHP:1,2013-04-01T23:42:00Z,30.0600,-84.2910,0.448,1111122 
COMPS,ioos:station:USF.COMPS:SHP:1,2013-04-01T23:48:00Z,30.0600,-84.2910,0.427,1111122 
COMPS,ioos:station:USF.COMPS:SHP:1,2013-04-01T23:54:00Z,30.0600,-84.2910,0.407,1111122 
COMPS,ioos:station:USF.COMPS:SHP:1,2013-04-02T00:00:00Z,30.0600,-84.2910,0.389,1111122 
COMPS,ioos:station:USF.COMPS:SHP:1,2013-04-02T00:06:00Z,30.0600,-84.2910,0.371,1111122 
COMPS,ioos:station:USF.COMPS:SHP:1,2013-04-02T00:12:00Z,30.0600,-84.2910,0.357,1111122 
COMPS,ioos:station:USF.COMPS:SHP:1,2013-04-02T00:18:00Z,30.0600,-84.2910,0.337,1111122 
COMPS,ioos:station:USF.COMPS:SHP:1,2013-04-02T00:24:00Z,30.0600,-84.2910,0.31,1111122 
COMPS,ioos:station:USF.COMPS:SHP:1,2013-04-02T00:30:00Z,30.0600,-84.2910,0.293,1111122 
COMPS,ioos:station:USF.COMPS:SHP:1,2013-04-02T00:36:00Z,30.0600,-84.2910,0.277,1111122 
COMPS,ioos:station:USF.COMPS:SHP:1,2013-04-02T00:42:00Z,30.0600,-84.2910,0.257,1111122 
COMPS,ioos:station:USF.COMPS:SHP:1,2013-04-02T00:48:00Z,30.0600,-84.2910,0.225,1111122 
COMPS,ioos:station:USF.COMPS:SHP:1,2013-04-02T00:54:00Z,30.0600,-84.2910,0.198,1111122 
COMPS,ioos:station:USF.COMPS:SHP:1,2013-04-02T01:00:00Z,30.0600,-84.2910,0.174,1111122 
COMPS,ioos:station:USF.COMPS:SHP:1,2013-04-02T01:06:00Z,30.0600,-84.2910,0.148,1111122 
COMPS,ioos:station:USF.COMPS:SHP:1,2013-04-02T01:12:00Z,30.0600,-84.2910,0.126,1111122 
COMPS,ioos:station:USF.COMPS:SHP:1,2013-04-02T01:18:00Z,30.0600,-84.2910,0.101,1111122 
COMPS,ioos:station:USF.COMPS:SHP:1,2013-04-02T01:24:00Z,30.0600,-84.2910,0.078,1111122 
COMPS,ioos:station:USF.COMPS:SHP:1,2013-04-02T01:30:00Z,30.0600,-84.2910,0.054,1111122 
COMPS,ioos:station:USF.COMPS:SHP:1,2013-04-02T01:36:00Z,30.0600,-84.2910,0.026,1111122 
COMPS,ioos:station:USF.COMPS:SHP:1,2013-04-02T01:42:00Z,30.0600,-84.2910,0.0,1114422 
COMPS,ioos:station:USF.COMPS:SHP:1,2013-04-02T01:48:00Z,30.0600,-84.2910,-0.024,1111122 
COMPS,ioos:station:USF.COMPS:SHP:1,2013-04-02T01:54:00Z,30.0600,-84.2910,-0.049,1111122 
COMPS,ioos:station:USF.COMPS:SHP:1,2013-04-02T02:00:00Z,30.0600,-84.2910,-0.071,1111122 
COMPS,ioos:station:USF.COMPS:SHP:1,2013-04-02T02:06:00Z,30.0600,-84.2910,-0.094,1111122 
COMPS,ioos:station:USF.COMPS:SHP:1,2013-04-02T02:12:00Z,30.0600,-84.2910,-0.119,1111122 
COMPS,ioos:station:USF.COMPS:SHP:1,2013-04-02T02:18:00Z,30.0600,-84.2910,-0.144,1111122 
COMPS,ioos:station:USF.COMPS:SHP:1,2013-04-02T02:24:00Z,30.0600,-84.2910,-0.164,1111122 
COMPS,ioos:station:USF.COMPS:SHP:1,2013-04-02T02:30:00Z,30.0600,-84.2910,-0.185,1111122 
COMPS,ioos:station:USF.COMPS:SHP:1,2013-04-02T02:36:00Z,30.0600,-84.2910,-0.206,1111122 
COMPS,ioos:station:USF.COMPS:SHP:1,2013-04-02T02:42:00Z,30.0600,-84.2910,-0.228,1111122 
COMPS,ioos:station:USF.COMPS:SHP:1,2013-04-02T02:48:00Z,30.0600,-84.2910,-0.249,1111122 
COMPS,ioos:station:USF.COMPS:SHP:1,2013-04-02T02:54:00Z,30.0600,-84.2910,-0.267,1111122 
COMPS,ioos:station:USF.COMPS:SHP:1,2013-04-02T03:00:00Z,30.0600,-84.2910,-0.287,1111122 